Madrid, Spain

10:33 AM CEST on May 22, 2018 (GMT +0200)
Madrid-Barajas Airport

Weather History for LEMD - February, 2012

Change the Weather History Date:

Monday, February 6, 2012

  Actual Average Record
Temperature  
Mean Temperature 48 °F -  
Max Temperature 58 °F 54 °F 66 °F (2011)
Min Temperature 39 °F 34 °F 24 °F (2006)
Degree Days  
Heating Degree Days 16    
Moisture  
Dew Point 31 °F    
Average Humidity 53    
Maximum Humidity 81    
Minimum Humidity 33    
Precipitation  
Precipitation 0.00 in 0.05 in - ()
Sea Level Pressure  
Sea Level Pressure 30.35 in    
Wind  
Wind Speed 11 mph ()    
Max Wind Speed 25 mph    
Max Gust Speed 33 mph    
Visibility 7.4 miles    
Events      
Averages and records for this station are not official NWS values.
T = Trace of Precipitation, MM = Missing Value Source: Averaged Metar Reports

Daily Weather History Graph

Daily Weather History Graph

Search for Another Location

Airport or City:

Astronomy

Feb. 06, 2012 Rise Set
Actual Time 8:19 AM CET 6:37 PM CET
Civil Twilight 7:50 AM CET 7:06 PM CET
Nautical Twilight 7:18 AM CET 7:38 PM CET
Astronomical Twilight 6:46 AM CET 8:10 PM CET
Moon 5:25 PM CET (2/6) 7:01 AM CET (2/6)
Length of Visible Light 11h 15m
Length of Day
10h 18m
Waxing Gibbous, 97% of the Moon is Illuminated
Feb 6
Waxing Gibbous
Feb 7
Full
Feb 14
Last Quarter
Feb 21
New
Mar 1
First Quarter

Hourly Weather History & Observations

Time (CET) Temp. Windchill Dew Point Humidity Pressure Visibility Wind Dir Wind Speed Gust Speed Precip Events Conditions
12:00 AM 42.8 °F 33.8 °F 26.6 °F 53% 30.33 in - North 21.9 mph 33.4 mph N/A   Clear
12:30 AM 42.8 °F 35.1 °F 24.8 °F 49% 30.36 in - North 16.1 mph 29.9 mph N/A   Clear
1:00 AM 40 °F - 24 °F 40% 30.45 in 19 mi North 9.2 mph - -  
1:00 AM 41.0 °F 35.8 °F 24.8 °F 53% 30.39 in - North 8.1 mph - N/A   Clear
1:30 AM 42.8 °F 34.5 °F 24.8 °F 49% 30.36 in - North 18.4 mph - N/A   Clear
2:00 AM 42.8 °F 34.0 °F 23.0 °F 46% 30.36 in - North 20.7 mph - N/A   Clear
2:30 AM 41.0 °F 31.9 °F 24.8 °F 53% 30.36 in - North 19.6 mph - N/A   Clear
3:00 AM 42.8 °F 33.3 °F 23.0 °F 46% 30.36 in - North 24.2 mph - N/A   Clear
3:30 AM 42.8 °F 35.1 °F 23.0 °F 46% 30.39 in - North 16.1 mph - N/A   Clear
4:00 AM 41.0 °F 34.3 °F 21.2 °F 45% 30.39 in - North 11.5 mph - N/A   Clear
4:30 AM 42.8 °F 35.8 °F 23.0 °F 46% 30.36 in - NNE 13.8 mph - N/A   Clear
5:00 AM 42.8 °F 35.8 °F 24.8 °F 49% 30.36 in - NNE 13.8 mph - N/A   Clear
5:30 AM 41.0 °F 32.5 °F 23.0 °F 49% 30.36 in - North 17.3 mph - N/A   Clear
6:00 AM 42.8 °F 34.8 °F 24.8 °F 49% 30.36 in 6.2 mi NNE 17.3 mph - N/A   Partly Cloudy
6:30 AM 42.8 °F 35.1 °F 26.6 °F 53% 30.36 in 6.2 mi NNE 16.1 mph - N/A   Partly Cloudy
7:00 AM 43 °F - 26 °F 39% 30.44 in 19 mi North 11.5 mph - -   Scattered Clouds
7:00 AM 42.8 °F 36.6 °F 28.4 °F 57% 30.36 in 6.2 mi NNE 11.5 mph - N/A   Partly Cloudy
7:30 AM 42.8 °F 38.0 °F 28.4 °F 57% 30.39 in 6.2 mi North 8.1 mph - N/A   Scattered Clouds
8:00 AM 41.0 °F 36.4 °F 28.4 °F 61% 30.39 in 6.2 mi North 6.9 mph - N/A   Scattered Clouds
8:30 AM 41.0 °F 38.0 °F 28.4 °F 61% 30.39 in 6.2 mi North 4.6 mph - N/A   Scattered Clouds
9:00 AM 41.0 °F 37.1 °F 28.4 °F 61% 30.39 in 6.2 mi North 5.8 mph - N/A   Partly Cloudy
9:30 AM 42.8 °F 40.1 °F 28.4 °F 57% 30.39 in 6.2 mi West 4.6 mph - N/A   Partly Cloudy
10:00 AM 42.8 °F 41.1 °F 26.6 °F 53% 30.39 in 6.2 mi West 3.5 mph 15.0 mph N/A   Partly Cloudy
10:30 AM 46.4 °F - 28.4 °F 50% 30.39 in 6.2 mi Variable 2.3 mph 13.8 mph N/A   Mostly Cloudy
11:00 AM 46.4 °F 44.3 °F 30.2 °F 53% 30.39 in 6.2 mi SW 4.6 mph - N/A   Mostly Cloudy
11:30 AM 48.2 °F - 30.2 °F 50% 30.39 in 6.2 mi Variable 2.3 mph 18.4 mph N/A   Mostly Cloudy
12:00 PM 50.0 °F - 30.2 °F 47% 30.39 in 6.2 mi West 1.2 mph - N/A   Mostly Cloudy
12:30 PM 50.0 °F - 30.2 °F 47% 30.39 in 6.2 mi SW 4.6 mph - N/A   Mostly Cloudy
1:00 PM 53 °F - 33 °F 33% 30.38 in 14 mi NNW 6.9 mph - -   Scattered Clouds
1:00 PM 53.6 °F - 35.6 °F 51% 30.36 in 6.2 mi NW 6.9 mph - N/A   Partly Cloudy
1:30 PM 55.4 °F - 33.8 °F 44% 30.36 in 6.2 mi North 10.4 mph - N/A   Scattered Clouds
2:00 PM 55.4 °F - 35.6 °F 47% 30.33 in 6.2 mi NNW 11.5 mph - N/A   Partly Cloudy
2:30 PM 55.4 °F - 33.8 °F 44% 30.33 in 6.2 mi NNW 16.1 mph - N/A   Partly Cloudy
3:00 PM 57.2 °F - 33.8 °F 41% 30.33 in 6.2 mi NNW 25.3 mph - N/A   Partly Cloudy
3:30 PM 57.2 °F - 35.6 °F 44% 30.30 in 6.2 mi NNW 21.9 mph 33.4 mph N/A   Partly Cloudy
4:00 PM 57.2 °F - 35.6 °F 44% 30.30 in 6.2 mi WNW 17.3 mph - N/A   Scattered Clouds
4:30 PM 57.2 °F - 35.6 °F 44% 30.30 in 6.2 mi NNW 13.8 mph - N/A   Scattered Clouds
5:00 PM 57.2 °F - 33.8 °F 41% 30.30 in 6.2 mi NW 11.5 mph 27.6 mph N/A   Scattered Clouds
5:30 PM 57.2 °F - 35.6 °F 44% 30.30 in 6.2 mi WNW 13.8 mph - N/A   Partly Cloudy
6:00 PM 55.4 °F - 37.4 °F 51% 30.27 in 6.2 mi West 9.2 mph - N/A   Scattered Clouds
6:30 PM 55.4 °F - 39.2 °F 54% 30.27 in 6.2 mi West 12.7 mph - N/A   Scattered Clouds
7:00 PM 54 °F - 37 °F 40% 30.30 in 19 mi West 10.4 mph - -   Partly Cloudy
7:00 PM 55.4 °F - 39.2 °F 54% 30.27 in 6.2 mi West 10.4 mph 21.9 mph N/A   Scattered Clouds
7:30 PM 53.6 °F - 37.4 °F 54% 30.30 in 6.2 mi NNW 3.5 mph - N/A   Mostly Cloudy
8:00 PM 50.0 °F - 37.4 °F 62% 30.27 in 6.2 mi ENE 5.8 mph - N/A   Scattered Clouds
8:30 PM 48.2 °F - 39.2 °F 71% 30.30 in 6.2 mi NNE 5.8 mph - N/A   Mostly Cloudy
9:00 PM 46.4 °F 44.3 °F 39.2 °F 76% 30.30 in 6.2 mi North 4.6 mph - N/A   Partly Cloudy
9:30 PM 46.4 °F 42.9 °F 39.2 °F 76% 30.30 in 6.2 mi North 6.9 mph - N/A   Mostly Cloudy
10:00 PM 46.4 °F 44.3 °F 39.2 °F 76% 30.30 in 6.2 mi NNW 4.6 mph - N/A   Mostly Cloudy
10:30 PM 44.6 °F - 39.2 °F 81% 30.30 in 6.2 mi NNE 1.2 mph - N/A   Scattered Clouds
11:00 PM 44.6 °F 43.1 °F 37.4 °F 76% 30.30 in 6.2 mi North 3.5 mph - N/A   Scattered Clouds
11:30 PM 42.8 °F - 37.4 °F 81% 30.30 in 6.2 mi Calm Calm - N/A   Scattered Clouds